Regional Weather Roundup
Issued by NWS Goodland, KS

Home | Current Version | Previous Version | Graphics & Text | Print | Product List | Glossary On
Versions: 1 2 3 4 5 6 7 8 9 10 11 12 13 14 15 16 17 18 19 20 21 22 23 24 25 26 27 28 29 30 31 32 33 34 35 36 37 38 39 40 41 42 43 44 45 46 47 48 49 50
000
ASUS43 KGLD 200608
RWRGLD

GOODLAND FORECAST AREA HOURLY WEATHER ROUNDUP
NATIONAL WEATHER SERVICE GOODLAND KS
1100 PM MST THU JAN 19 2017

...OFFICIAL OBSERVATIONS...

CITY           SKY/WX    TMP DP  RH WIND       PRES   REMARKS
GOODLAND KS    CLOUDY    33  33 100 S7        29.52F FOG
HILL CITY KS   FOG       39  39 100 CALM      29.56F VSB 1/2
IMPERIAL NEB   FOG       33  32  96 SW6       29.53F VSB 1/4
MCCOOK NEB     FOG       34  34 100 CALM      29.57R VSB 1/2
AKRON CO       CLOUDY    31  21  66 CALM      29.51F
BURLINGTON CO  FOG       28  28 100 S8        29.52F VSB 1/2
LIMON CO       CLOUDY    23  21  92 NW6       29.50F
$$

...UNOFFICIAL OBSERVATIONS...

CITY           SKY/WX    TMP DP  RH WIND       PRES   REMARKS
NORTON KS      FOG       36  34  93 W6        29.55  VSB 1/4
SHARON SPRINGS   N/A     35  34  96 CALM        N/A
KIT CARSON CO    N/A     28  26  90 CALM        N/A
YUMA CO        FAIR      21  18  86 W10       29.51S WCI  10
$$



USA.gov is the U.S. government's official web portal to all federal, state and local government web resources and services.